DW6123 Weather Reports


time (UTC)temp
C
wind
direction
speed
KPH
gust
KPH
rain 1hr
cm
rain 24hr
cm
rain mn
cm
humidity
%
barometer
mb
20260503203552 32 195 1.6 6.4 0.00 0.00 0.00 31 1009.6
20260503203049 32 183 1.6 6.4 0.00 0.00 0.00 31 1009.7
20260503202552 32 180 1.6 4.8 0.00 0.00 0.00 31 1009.7
20260503202051 32 155 1.6 3.2 0.00 0.00 0.00 32 1009.8
20260503201549 32 151 1.6 3.2 0.00 0.00 0.00 31 1009.8
20260503201048 31 178 1.6 6.4 0.00 0.00 0.00 31 1009.8
20260503200548 32 219 1.6 6.4 0.00 0.00 0.00 29 1009.9
20260503200049 32 153 0.0 3.2 0.00 0.00 0.00 31 1010.0
20260503195049 31 203 1.6 3.2 0.00 0.00 0.00 31 1010.0
20260503194547 31 178 1.6 3.2 0.00 0.00 0.00 31 1010.1
20260503194047 31 182 1.6 4.8 0.00 0.00 0.00 34 1010.2
20260503193547 30 191 1.6 4.8 0.00 0.00 0.00 34 1010.2
20260503193047 30 242 1.6 4.8 0.00 0.00 0.00 35 1010.2
20260503192546 30 184 1.6 4.8 0.00 0.00 0.00 36 1010.3
20260503192046 30 184 1.6 6.4 0.00 0.00 0.00 35 1010.4
20260503191547 29 162 1.6 6.4 0.00 0.00 0.00 37 1010.4
20260503191046 29 204 1.6 4.8 0.00 0.00 0.00 39 1010.4
20260503190545 29 212 1.6 6.4 0.00 0.00 0.00 37 1010.6
20260503190045 29 143 1.6 6.4 0.00 0.00 0.00 38 1010.6
20260503185545 28 217 0.0 4.8 0.00 0.00 0.00 40 1010.6
20260503185046 28 228 1.6 6.4 0.00 0.00 0.00 39 1010.7
20260503184545 28 159 1.6 6.4 0.00 0.00 0.00 41 1010.7
20260503184045 28 218 0.0 4.8 0.00 0.00 0.00 40 1010.9
20260503183545 28 186 1.6 3.2 0.00 0.00 0.00 42 1011.0
20260503183045 27 182 1.6 3.2 0.00 0.00 0.00 42 1011.0
20260503182543 27 188 0.0 1.6 0.00 0.00 0.00 42 1011.1
20260503182043 27 188 0.0 1.6 0.00 0.00 0.00 44 1011.1
20260503181542 26 188 0.0 1.6 0.00 0.00 0.00 46 1011.2
20260503181041 26 188 0.0 1.6 0.00 0.00 0.00 47 1011.2
20260503180539 26 186 0.0 1.6 0.00 0.00 0.00 46 1011.2
20260503180040 26 186 0.0 1.6 0.00 0.00 0.00 47 1011.3
20260503175536 26 186 0.0 1.6 0.00 0.00 0.00 48 1011.3
20260503175036 25 185 0.0 1.6 0.00 0.00 0.00 50 1011.4
20260503174535 24 184 1.6 4.8 0.00 0.00 0.00 51 1011.4
20260503174035 24 227 1.6 6.4 0.00 0.00 0.00 51 1011.5
20260503173535 23 142 1.6 6.4 0.00 0.00 0.00 52 1011.5
20260503173033 23 139 0.0 0.0 0.00 0.00 0.00 56 1011.6
20260503172529 23 139 0.0 0.0 0.00 0.00 0.00 55 1011.6
20260503172032 23 161 0.0 0.0 0.00 0.00 0.00 55 1011.7
20260503171508 22 179 0.0 0.0 0.00 0.00 0.00 56 1011.7
20260503171009 22 181 0.0 0.0 0.00 0.00 0.00 56 1011.6
20260503170504 22 165 0.0 0.0 0.00 0.00 0.00 61 1011.6
20260503150939 13 161 0.0 0.0 0.00 0.00 0.00 94 1012.2
20260503150439 13 161 0.0 0.0 0.00 0.00 0.00 94 1012.1
20260503130859 11 161 0.0 0.0 0.00 0.00 0.00 93 1011.7
20260503130358 11 161 0.0 0.0 0.00 0.00 0.00 93 1011.7
20260503110335 12 161 0.0 0.0 0.00 0.00 0.00 91 1012.0
20260503081307 13 160 0.0 0.0 0.00 0.00 0.00 87 1012.4
20260503080806 13 160 0.0 0.0 0.00 0.00 0.00 87 1012.5
20260503072301 15 161 0.0 0.0 0.00 0.00 0.00 85 1012.5
20260503071801 15 160 0.0 0.0 0.00 0.00 0.00 85 1012.4
20260503070800 15 160 0.0 0.0 0.00 0.00 0.00 84 1012.4
20260503070301 15 160 0.0 0.0 0.00 0.00 0.00 84 1012.4
20260503054235 16 161 0.0 0.0 0.00 0.00 0.00 81 1012.1
20260503053236 16 160 0.0 0.0 0.00 0.00 0.00 82 1012.1
20260503052736 16 160 0.0 0.0 0.00 0.00 0.00 81 1012.0
20260503052232 16 160 0.0 0.0 0.00 0.00 0.00 81 1012.1
20260503051233 16 160 0.0 0.0 0.00 0.00 0.00 80 1012.5
20260503050733 16 160 0.0 0.0 0.00 0.00 0.00 80 1012.6
20260503050236 16 160 0.0 0.0 0.00 0.00 0.00 79 1012.8
20260503045705 16 160 0.0 0.0 0.00 0.00 0.00 79 1012.7
20260503045205 16 160 0.0 0.0 0.00 0.00 0.00 79 1012.5
20260503044659 16 160 0.0 0.0 0.00 0.00 0.00 79 1012.5
20260503044200 16 160 0.0 0.0 0.00 0.00 0.00 79 1012.4
20260503043656 17 160 0.0 0.0 0.00 0.00 0.00 78 1012.4
20260503043153 17 160 0.0 0.0 0.00 0.00 0.00 78 1012.4
20260503042653 17 160 0.0 0.0 0.00 0.00 0.00 78 1012.4
20260503041647 17 160 0.0 0.0 0.00 0.00 0.00 77 1012.6
20260503041145 17 160 0.0 0.0 0.00 0.00 0.00 77 1012.7
20260503040645 17 160 0.0 0.0 0.00 0.00 0.00 76 1012.5
20260503040146 17 160 0.0 0.0 0.00 0.00 0.00 76 1012.6
20260503035644 17 160 0.0 0.0 0.00 0.00 0.00 76 1012.6
20260503034644 17 160 0.0 0.0 0.00 0.00 0.00 75 1012.5
20260503034141 17 160 0.0 0.0 0.00 0.00 0.00 75 1012.5
20260503033640 17 160 0.0 0.0 0.00 0.00 0.00 75 1012.3
20260503033141 17 156 0.0 0.0 0.00 0.00 0.00 75 1012.1
20260503032641 18 155 0.0 0.0 0.00 0.00 0.00 74 1012.2
20260503032139 18 154 0.0 0.0 0.00 0.00 0.00 74 1012.2
20260503031639 18 154 0.0 0.0 0.00 0.00 0.00 74 1012.1
20260503031139 18 154 0.0 0.0 0.00 0.00 0.00 73 1012.1
20260503030639 18 155 0.0 1.6 0.00 0.00 0.00 72 1012.2
20260503030140 18 154 0.0 1.6 0.00 0.00 0.00 72 1012.2
20260503025135 18 154 1.6 6.4 0.00 0.00 0.00 72 1012.3
20260503024133 18 270 3.2 11.3 0.00 0.00 0.00 71 1012.3
20260503023633 18 153 3.2 9.7 0.00 0.00 0.00 71 1012.2
20260503022631 19 224 3.2 16.1 0.00 0.00 0.00 69 1012.3
20260503022131 20 333 3.2 16.1 0.00 0.00 0.00 68 1012.3
20260503021630 21 152 3.2 9.7 0.00 0.00 0.00 66 1012.2
20260503021131 21 131 1.6 9.7 0.00 0.00 0.00 65 1012.2
20260503020127 22 169 0.0 3.2 0.00 0.00 0.00 64 1011.7
20260503015625 22 169 0.0 3.2 0.00 0.00 0.00 63 1011.5
20260503015128 22 199 0.0 1.6 0.00 0.00 0.00 62 1011.3
20260503014627 22 199 0.0 1.6 0.00 0.00 0.00 62 1011.2
20260503013624 22 172 0.0 1.6 0.00 0.00 0.00 63 1011.3
20260503013121 22 172 0.0 1.6 0.00 0.00 0.00 63 1011.2
20260503012621 22 141 0.0 3.2 0.00 0.00 0.00 64 1011.2
20260503012120 22 141 0.0 3.2 0.00 0.00 0.00 62 1011.1
20260503011616 22 169 0.0 1.6 0.00 0.00 0.00 64 1011.1
20260503010113 22 164 1.6 6.4 0.00 0.00 0.00 62 1011.2
20260503005113 22 218 1.6 3.2 0.00 0.00 0.00 63 1011.1
20260503004614 21 139 3.2 8.0 0.00 0.00 0.00 63 1011.2
20260503004113 21 129 3.2 8.0 0.00 0.00 0.00 63 1011.2
20260503003613 21 166 1.6 8.0 0.00 0.00 0.00 63 1011.2
20260503002614 21 111 1.6 8.0 0.00 0.00 0.00 62 1011.2
20260503002111 22 129 1.6 8.0 0.00 0.00 0.00 62 1011.2
20260503001110 21 129 3.2 9.7 0.00 0.00 0.00 62 1011.3
20260503000607 22 134 3.2 9.7 0.00 0.00 0.00 62 1011.3
20260503000107 21 148 3.2 6.4 0.00 0.00 0.00 61 1011.4
20260502235106 21 134 3.2 8.0 0.00 0.00 0.00 61 1011.3
20260502234605 21 124 1.6 6.4 0.00 0.00 0.00 61 1011.5
20260502234059 21 131 3.2 6.4 0.00 0.00 0.00 62 1011.5
20260502233559 21 134 3.2 8.0 0.00 0.00 0.00 61 1011.6
20260502233059 21 128 3.2 9.7 0.00 0.00 0.00 61 1011.7
20260502232557 21 128 1.6 9.7 0.00 0.00 0.00 62 1011.7
20260502232056 22 135 1.6 4.8 0.00 0.00 0.00 61 1011.8
20260502231557 21 146 3.2 8.0 0.00 0.00 0.00 62 1011.7
20260502231056 21 127 3.2 8.0 0.00 0.00 0.00 62 1011.8
20260502230557 21 128 3.2 11.3 0.00 0.00 0.00 63 1011.9
20260502230057 21 146 3.2 11.3 0.00 0.00 0.00 63 1011.9
20260502225557 21 153 3.2 9.7 0.00 0.00 0.00 63 1012.1
20260502224553 21 141 1.6 6.4 0.00 0.00 0.00 63 1012.2
20260502224054 21 131 3.2 4.8 0.00 0.00 0.00 63 1012.3
20260502223553 21 142 3.2 4.8 0.00 0.00 0.00 63 1012.5
20260502223051 21 122 1.6 6.4 0.00 0.00 0.00 64 1012.5
20260502222551 21 79 3.2 6.4 0.00 0.00 0.00 63 1012.6
20260502221550 21 125 3.2 6.4 0.00 0.00 0.00 61 1012.7
20260502220551 21 131 3.2 6.4 0.00 0.00 0.00 62 1012.9
20260502220051 20 89 3.2 8.0 0.00 0.00 0.00 64 1013.0
20260502215549 20 65 1.6 8.0 0.00 0.00 0.00 62 1013.1
20260502214549 20 141 1.6 6.4 0.00 0.00 0.00 64 1013.1
20260502214047 20 75 1.6 6.4 0.00 0.00 0.00 64 1013.2
20260502213547 19 164 3.2 6.4 0.00 0.00 0.00 67 1013.3
20260502213047 19 136 1.6 6.4 0.00 0.00 0.00 66 1013.4
20260502212547 19 133 1.6 6.4 0.00 0.00 0.00 65 1013.5
20260502212047 19 129 3.2 8.0 0.00 0.00 0.00 67 1013.5
20260502211541 18 231 3.2 8.0 0.00 0.00 0.00 66 1013.6
20260502211037 18 221 1.6 8.0 0.00 0.00 0.00 68 1013.9
20260502210537 18 90 1.6 6.4 0.00 0.00 0.00 67 1013.9
20260502210036 18 156 3.2 6.4 0.00 0.00 0.00 69 1013.9
20260502205537 18 151 3.2 8.0 0.00 0.00 0.00 69 1014.0
20260502205037 17 345 3.2 8.0 0.00 0.00 0.00 69 1014.1
20260502204537 17 122 3.2 8.0 0.00 0.00 0.00 69 1014.1
20260502204036 17 134 3.2 8.0 0.00 0.00 0.00 70 1014.2